This demonstration page uses our WeatherBlox Daily Observations layout. Learn more.

38.89511, -77.03637

Hourly Observations for July 18, 2017

Temp ( °F °C ) Dew Point ( °F °C ) Humidity (%) Winds ( mph kmh ) Pressure ( in mb ) Visibility ( mi km ) Precip ( " mm )
12:52 am 00:52 Mostly Cloudy 79 26.1 75 23.9 88 88 S 8 13 30.03 1017 10 16.09344 0 0
1:52 am 01:52 Mostly Cloudy 79 26.1 76 24.4 90 90 S 9 15 30 1016 10 16.09344 0 0
2:52 am 02:52 Mostly Cloudy 78 25.6 75 23.9 90 90 SE 6 9 30.03 1017 10 16.09344 0 0
3:52 am 03:52 Mostly Cloudy 78 25.6 75 23.9 90 90 SSW 7 11 30.03 1017 10 16.09344 0 0
4:52 am 04:52 Mostly Cloudy 78 25.6 75 23.9 90 90 S 7 11 30.03 1017 10 16.09344 0 0
6:52 am 06:52 Mostly Sunny 77 25 73 22.8 88 88 S 8 13 30.06 1018 10 16.09344 0 0
7:52 am 07:52 Mostly Sunny 80 26.7 72 22.2 76 76 N 3 6 30.06 1018 10 16.09344 0 0
8:52 am 08:52 Mostly Sunny 81 27.2 74 23.3 79 79 SSE 5 7 30.06 1018 10 16.09344 0 0
9:52 am 09:52 Mostly Sunny 83 28.3 74 23.3 74 74 ESE 3 6 30.09 1019 10 16.09344 0 0
10:52 am 10:52 Partly Cloudy 85 29.4 75 23.9 72 72 S 7 11 30.09 1019 10 16.09344 0 0
11:52 am 11:52 Partly Cloudy 88 31.1 74 23.3 63 63 S 7 11 30.06 1018 10 16.09344 0 0
12:52 pm 12:52 Partly Cloudy 90 32.2 75 23.9 62 62 S 8 13 30.06 1018 10 16.09344 0 0
1:52 pm 13:52 Mostly Cloudy 90 32.2 76 24.4 63 63 S 15 24 30.03 1017 10 16.09344 0 0
2:52 pm 14:52 Mostly Cloudy 91 32.8 74 23.3 57 57 S 14 22 30.03 1017 10 16.09344 0 0
3:52 pm 15:52 Mostly Cloudy 91 32.8 71 21.7 52 52 S 8 13 30.03 1017 10 16.09344 0 0
4:52 pm 16:52 Mostly Cloudy 91 32.8 73 22.8 56 56 S 13 20 30.03 1017 10 16.09344 0 0
4:58 pm 16:58 Mostly Cloudy with Thunderstorms 91 32.8 74 23.3 57 57 S 13 20 30.06 1018 10 16.09344 0 0
5:21 pm 17:21 Mostly Cloudy with Thunderstorms 86 30 71 21.7 61 61 ESE 22 35 30.06 1018 2.5 4.02336 0 0
5:36 pm 17:36 Mostly Cloudy with Thunderstorms 84 28.9 69 20.6 61 61 E 15 24 30.06 1018 10 16.09344 0 0
5:52 pm 17:52 Mostly Cloudy 82 27.8 69 20.6 65 65 ESE 9 15 30.03 1017 10 16.09344 0 0
6:27 pm 18:27 Mostly Cloudy 83 28.3 69 20.6 63 63 N 6 9 30.03 1017 10 16.09344 0.001 0.001
6:52 pm 18:52 Mostly Cloudy 83 28.3 72 22.2 70 70 NNE 3 6 30.03 1017 10 16.09344 0.001 0.001
7:52 pm 19:52 Partly Cloudy 83 28.3 73 22.8 72 72 Calm 30.06 1018 10 16.09344 0 0
8:52 pm 20:52 Partly Cloudy 83 28.3 74 23.3 74 74 S 8 13 30.06 1018 10 16.09344 0 0
9:52 pm 21:52 Partly Cloudy 83 28.3 75 23.9 77 77 S 8 13 30.06 1018 10 16.09344 0 0
10:52 pm 22:52 Partly Cloudy 82 27.8 75 23.9 79 79 S 8 13 30.06 1018 10 16.09344 0 0
11:52 pm 23:52 Partly Cloudy 81 27.2 76 24.4 85 85 S 8 13 30.06 1018 10 16.09344 0 0

Powered by AerisWeather